Location: Keewatin
(47.4004°N, 93.0827°W)
Time: 00:28:52
(UTC+00:00)

Envisat - Pass Details

Date: 09 December 2019
Orbit: 764 x 766 km, 98.1° (Epoch: 21 January)

Event Time Altitude Azimuth Distance (km) Brightness Sun altitude
Rises 23:14:51 0° 141° (SE) 3,223 6.1 -8.7°
Reaches altitude 10° 23:17:16 10° 133° (SE) 2,301 5.3 -9.1°
Maximum altitude 23:21:55 38° 67° (ENE) 1,162 3.5 -9.8°
Drops below altitude 10° 23:26:36 10° 1° (N) 2,316 5.3 -10.5°
Sets 23:29:03 0° 353° (N) 3,247 6.1 -10.9°
